FW5449 Weather Reports


time (UTC)temp
C
wind
direction
speed
KPH
gust
KPH
rain 1hr
cm
rain 24hr
cm
rain mn
cm
humidity
%
barometer
mb
20260504100535 12 216 8.0 16.1 0.00 0.00 0.00 86 1012.2
20260504081501 12 235 9.7 20.9 0.00 0.00 0.00 86 1011.6
20260504081451 12 214 9.7 17.7 0.00 0.00 0.00 86 1011.5
20260504080501 12 178 11.3 19.3 0.00 0.00 0.00 86 1011.5
20260504060212 13 183 9.7 17.7 0.00 0.00 0.00 80 1010.2
20260504050435 16 219 11.3 19.3 0.00 0.00 0.00 74 1009.1
20260504050154 16 230 9.7 17.7 0.00 0.00 0.00 73 1009.0
20260504045434 16 193 11.3 20.9 0.00 0.00 0.00 73 1008.8
20260504044933 16 220 11.3 20.9 0.00 0.00 0.00 72 1008.7
20260504044433 17 183 11.3 20.9 0.00 0.00 0.00 71 1008.7
20260504043933 17 250 12.9 20.9 0.00 0.00 0.00 70 1008.7
20260504043434 17 189 14.5 20.9 0.00 0.00 0.00 69 1008.6
20260504042932 18 219 16.1 29.0 0.00 0.00 0.00 68 1008.5
20260504042430 18 231 16.1 29.0 0.00 0.00 0.00 68 1008.3
20260504041928 19 221 16.1 25.7 0.00 0.00 0.00 67 1008.3
20260504041652 19 189 17.7 25.7 0.00 0.00 0.00 66 1008.1
20260504040925 20 206 16.1 25.7 0.00 0.00 0.00 66 1008.0
20260504040421 20 248 14.5 25.7 0.00 0.00 0.00 66 1007.8
20260504040141 20 232 12.9 25.7 0.00 0.00 0.00 65 1007.8
20260504035419 21 251 12.9 25.7 0.00 0.00 0.00 64 1007.6
20260504034918 21 230 14.5 25.7 0.00 0.00 0.00 63 1007.6
20260504034642 22 253 14.5 27.4 0.00 0.00 0.00 61 1007.5
20260504033917 22 252 12.9 27.4 0.00 0.00 0.00 62 1007.3
20260504033637 22 231 8.0 17.7 0.00 0.00 0.00 65 1007.2
20260504032912 23 241 9.7 17.7 0.00 0.00 0.00 65 1007.1
20260504032634 23 247 8.0 17.7 0.00 0.00 0.00 67 1007.1
20260504031902 23 221 6.4 16.1 0.00 0.00 0.00 67 1006.9
20260504031404 23 235 4.8 6.4 0.00 0.00 0.00 66 1006.8
20260504030900 23 229 3.2 6.4 0.00 0.00 0.00 66 1006.9
20260504030358 23 256 4.8 8.0 0.00 0.00 0.00 65 1006.8
20260504025858 23 239 4.8 8.0 0.00 0.00 0.00 64 1006.7
20260504025351 24 239 4.8 8.0 0.00 0.00 0.00 64 1006.8
20260504024850 24 229 3.2 6.4 0.00 0.00 0.00 64 1006.7
20260504024352 25 252 3.2 6.4 0.00 0.00 0.00 64 1006.6
20260504024117 25 221 1.6 3.2 0.00 0.00 0.00 62 1006.7
20260504023347 25 222 1.6 4.8 0.00 0.00 0.00 62 1006.7
20260504022846 25 222 3.2 4.8 0.00 0.00 0.00 62 1006.7
20260504022559 25 230 3.2 4.8 0.00 0.00 0.00 63 1006.7
20260504021838 26 230 1.6 4.8 0.00 0.00 0.00 61 1006.7
20260504021339 26 230 0.0 0.0 0.00 0.00 0.00 57 1006.7
20260504020833 27 322 1.6 4.8 0.00 0.00 0.00 54 1006.7
20260504020330 27 322 3.2 6.4 0.00 0.00 0.00 54 1006.7
20260504020040 27 308 3.2 8.0 0.00 0.00 0.00 53 1006.8
20260504015320 27 335 3.2 9.7 0.00 0.00 0.00 53 1006.8
20260504014821 28 337 3.2 9.7 0.00 0.00 0.00 53 1006.8
20260504014534 28 350 3.2 6.4 0.00 0.00 0.00 53 1006.8
20260504013813 28 8 4.8 8.0 0.00 0.00 0.00 52 1006.8
20260504013311 28 353 4.8 8.0 0.00 0.00 0.00 51 1006.8
20260504012809 28 325 4.8 9.7 0.00 0.00 0.00 49 1006.7
20260504012308 28 337 6.4 12.9 0.00 0.00 0.00 49 1006.8
20260504011808 28 2 6.4 12.9 0.00 0.00 0.00 47 1006.7
20260504011306 28 345 6.4 14.5 0.00 0.00 0.00 48 1006.7
20260504011235 29 337 6.4 17.7 0.00 0.00 0.00 46 1006.7
20260504010902 29 357 6.4 14.5 0.00 0.00 0.00 45 1006.9
20260504005806 29 23 8.0 17.7 0.00 0.00 0.00 45 1006.8
20260504005307 30 22 8.0 14.5 0.00 0.00 0.00 44 1006.8
20260504004805 29 5 8.0 16.1 0.00 0.00 0.00 44 1006.7
20260504004301 30 21 6.4 16.1 0.00 0.00 0.00 43 1006.7
20260504003803 30 18 8.0 16.1 0.00 0.00 0.00 44 1006.8
20260504003302 30 2 8.0 16.1 0.00 0.00 0.00 45 1006.7
20260504003022 30 341 9.7 16.1 0.00 0.00 0.00 43 1006.8
20260504002258 30 36 8.0 16.1 0.00 0.00 0.00 43 1006.8
20260504001758 30 8 8.0 16.1 0.00 0.00 0.00 44 1006.9
20260504001257 30 42 11.3 17.7 0.00 0.00 0.00 42 1006.9
20260504001017 30 12 9.7 17.7 0.00 0.00 0.00 42 1006.8
20260504000256 30 25 9.7 17.7 0.00 0.00 0.00 43 1006.8
20260504000022 30 350 9.7 17.7 0.00 0.00 0.00 44 1006.8
20260503235255 30 29 8.0 16.1 0.00 0.00 0.00 45 1006.8
20260503234753 29 339 9.7 19.3 0.00 0.00 0.00 47 1006.8
20260503234252 29 36 11.3 20.9 0.00 0.00 0.00 46 1006.8
20260503233753 29 346 12.9 20.9 0.00 0.00 0.00 46 1006.9
20260503233250 29 353 11.3 20.9 0.00 0.00 0.00 46 1006.9
20260503232751 30 356 12.9 19.3 0.00 0.00 0.00 44 1007.1
20260503232249 29 23 12.9 20.9 0.00 0.00 0.00 47 1007.1
20260503231750 29 358 11.3 20.9 0.00 0.00 0.00 45 1007.0
20260503231254 29 0 9.7 19.3 0.00 0.00 0.00 46 1007.2
20260503230748 29 0 11.3 19.3 0.00 0.00 0.00 48 1007.2
20260503230250 29 8 9.7 19.3 0.00 0.00 0.00 45 1007.3
20260503225751 29 33 8.0 17.7 0.00 0.00 0.00 50 1007.4
20260503225249 29 350 9.7 16.1 0.00 0.00 0.00 48 1007.5
20260503225007 28 0 11.3 17.7 0.00 0.00 0.00 48 1007.6
20260503224249 29 4 9.7 17.7 0.00 0.00 0.00 48 1007.6
20260503223743 28 23 9.7 17.7 0.00 0.00 0.00 49 1007.7
20260503223243 28 2 9.7 17.7 0.00 0.00 0.00 50 1007.8
20260503222958 30 335 9.7 17.7 0.00 0.00 0.00 47 1008.0
20260503222234 30 322 9.7 16.1 0.00 0.00 0.00 46 1008.1
20260503221732 29 17 8.0 16.1 0.00 0.00 0.00 49 1008.1
20260503221232 29 37 8.0 16.1 0.00 0.00 0.00 47 1008.2
20260503220723 29 349 9.7 17.7 0.00 0.00 0.00 46 1008.2
20260503220446 28 350 9.7 17.7 0.00 0.00 0.00 43 1008.4
20260503215724 28 4 9.7 17.7 0.00 0.00 0.00 44 1008.5
20260503215218 28 11 8.0 16.1 0.00 0.00 0.00 50 1008.5
20260503214719 28 348 6.4 16.1 0.00 0.00 0.00 50 1008.5
20260503214216 28 358 6.4 14.5 0.00 0.00 0.00 49 1008.6
20260503213717 28 0 6.4 14.5 0.00 0.00 0.00 49 1008.5
20260503213215 27 13 6.4 16.1 0.00 0.00 0.00 50 1008.7
20260503212716 28 350 8.0 16.1 0.00 0.00 0.00 49 1008.6
20260503212214 28 13 8.0 14.5 0.00 0.00 0.00 52 1008.6
20260503211711 28 344 8.0 14.5 0.00 0.00 0.00 51 1009.0
20260503211212 28 23 8.0 17.7 0.00 0.00 0.00 49 1008.7
20260503210715 28 352 6.4 17.7 0.00 0.00 0.00 53 1008.8
20260503210212 27 312 8.0 16.1 0.00 0.00 0.00 55 1008.9
20260503205714 27 337 8.0 17.7 0.00 0.00 0.00 56 1008.9
20260503205211 27 42 8.0 17.7 0.00 0.00 0.00 55 1008.9
20260503204932 27 284 8.0 16.1 0.00 0.00 0.00 52 1009.0
20260503204443 27 348 9.7 16.1 0.00 0.00 0.00 56 1009.1
20260503203708 27 358 8.0 16.1 0.00 0.00 0.00 55 1009.2
20260503203210 26 352 6.4 16.1 0.00 0.00 0.00 55 1009.2
20260503202709 26 333 6.4 14.5 0.00 0.00 0.00 51 1009.3
20260503202204 26 354 4.8 12.9 0.00 0.00 0.00 55 1009.6
20260503201705 26 308 4.8 12.9 0.00 0.00 0.00 52 1009.7
20260503201205 26 313 6.4 16.1 0.00 0.00 0.00 54 1009.4
20260503200703 26 24 6.4 16.1 0.00 0.00 0.00 55 1009.5
20260503200201 25 17 6.4 14.5 0.00 0.00 0.00 54 1009.9
20260503195701 25 35 6.4 14.5 0.00 0.00 0.00 58 1009.6
20260503195201 25 21 6.4 12.9 0.00 0.00 0.00 59 1009.7
20260503194701 25 352 6.4 14.5 0.00 0.00 0.00 59 1009.8
20260503194202 25 10 6.4 14.5 0.00 0.00 0.00 61 1010.0
20260503193703 25 9 8.0 14.5 0.00 0.00 0.00 57 1009.9
20260503193417 25 350 6.4 16.1 0.00 0.00 0.00 61 1010.0
20260503192658 24 6 6.4 16.1 0.00 0.00 0.00 62 1010.2
20260503192157 24 354 6.4 14.5 0.00 0.00 0.00 62 1010.2
20260503191655 25 2 6.4 14.5 0.00 0.00 0.00 63 1010.5
20260503191147 24 285 4.8 14.5 0.00 0.00 0.00 65 1010.2
20260503190646 23 350 4.8 14.5 0.00 0.00 0.00 65 1010.3
20260503190146 23 359 4.8 11.3 0.00 0.00 0.00 65 1010.3
20260503185637 23 324 6.4 11.3 0.00 0.00 0.00 64 1010.6
20260503185142 23 320 6.4 11.3 0.00 0.00 0.00 66 1010.6
20260503184629 22 316 4.8 9.7 0.00 0.00 0.00 67 1010.6
20260503184108 22 347 4.8 9.7 0.00 0.00 0.00 66 1010.7
20260503183602 22 327 4.8 9.7 0.00 0.00 0.00 68 1010.8
20260503183101 22 10 4.8 11.3 0.00 0.00 0.00 68 1011.0
20260503182553 22 279 4.8 11.3 0.00 0.00 0.00 69 1010.9
20260503182055 22 327 4.8 12.9 0.00 0.00 0.00 68 1010.9
20260503181555 22 335 6.4 12.9 0.00 0.00 0.00 72 1010.9
20260503181550 22 322 4.8 12.9 0.00 0.00 0.00 72 1011.0
20260503180552 21 231 4.8 12.9 0.00 0.00 0.00 76 1011.0
20260503180055 20 326 3.2 9.7 0.00 0.00 0.00 75 1011.0
20260503175549 21 63 3.2 9.7 0.00 0.00 0.00 72 1010.9
20260503175049 21 292 4.8 9.7 0.00 0.00 0.00 73 1011.0
20260503174548 20 71 4.8 11.3 0.00 0.00 0.00 76 1011.0
20260503174319 20 44 4.8 11.3 0.00 0.00 0.00 75 1011.0
20260503173545 20 335 4.8 11.3 0.00 0.00 0.00 74 1011.0
20260503173047 20 341 3.2 8.0 0.00 0.00 0.00 77 1011.0
20260503172541 20 339 1.6 8.0 0.00 0.00 0.00 75 1011.0
20260503172043 18 160 1.6 6.4 0.00 0.00 0.00 78 1011.0
20260503171538 19 32 4.8 9.7 0.00 0.00 0.00 77 1011.0
20260503171038 19 306 4.8 11.3 0.00 0.00 0.00 78 1011.1
20260503170534 19 9 4.8 11.3 0.00 0.00 0.00 78 1011.2
20260503150404 11 73 0.0 0.0 0.00 0.00 0.00 97 1011.4
20260503140304 9 73 0.0 0.0 0.00 0.00 0.00 96 1011.2
20260503130652 8 98 0.0 1.6 0.00 0.00 0.00 96 1011.0
20260503130145 8 140 0.0 1.6 0.00 0.00 0.00 96 1011.0
20260503110716 9 140 0.0 0.0 0.00 0.00 0.00 94 1011.4
20260503110217 9 140 0.0 0.0 0.00 0.00 0.00 94 1011.4